Location: *
(48.8489°N, 2.3218°E)
Time: 09:53:14
(UTC+00:00)

ARGOS Delta rocket - Pass Details

Date: 23 August 2019
Orbit: 635 x 838 km, 96.5° (Epoch: 17 September)

Event Time Altitude Azimuth Distance (km) Brightness Sun altitude
Exits shadow 22:36:39 75° 252° (WSW) 853 4.1 -27.5°
Maximum altitude 22:36:42 76° 259° (W) 853 4.1 -27.5°
Drops below altitude 10° 22:42:13 10° 346° (NNW) 2,459 7.6 -27.8°
Sets 22:44:38 0° 348° (NNW) 3,403 8.6 -28.0°
